Погода в Коротояке

Россия / Алтайский край     53°45′20″N   79°40′29″E
темп.,
°C
ветер,
м/с
пор.,
м/с
влажн.,
%
обл.,
%
осадки,
мм/ч
давл.,
гПа
погр.,
м
9 мая, вс
вс901:00+15юз22420 0.0 101712
04:00+13зсз22453 0.0 101719
07:00+12ссв11504 0.0 101712
10:00+17ссв33463 0.0 1016459
13:00+20ссв54366 0.0 10161179
16:00+20ссв6535100 0.0 10161487
19:00+17св7737100 0.0 10161160
22:00+13всв8123837 0.0 1018728
10 мая, пн
пн1001:00+10всв8144292 0.0 1018716
04:00+8в71547100 0.0 1018686
07:00+7в71453100 0.0 1020776
10:00+10всв91249100 0.0 1019961
13:00+15всв91134100 0.0 10181487
16:00+16св91031100 0.0 10171809
19:00+15св81035100 0.0 10171809
22:00+12св6124296 0.0 1017464
11 мая, вт
вт1101:00+10ссв6135088 0.0 1017401
04:00+8ссв612620 0.0 1018355
07:00+6ссв612690 0.0 1019331
10:00+12ссв69500 0.0 1019849
13:00+16ссв78388 0.0 10192253
16:00+18ссв783289 0.0 10182523
19:00+15ссв894279 0.0 10201598
22:00+11с49535 0.0 1022203
12 мая, ср
ср1201:00+9с37585 0.0 1022133
04:00+7с37610 0.0 1023110
07:00+7с36660 0.0 1024156
10:00+12с46449 0.0 10231151
13:00+15ссз5633100 0.0 10221650
16:00+17ссз5630100 0.0 10211797
19:00+17ссз46297 0.0 10201917
22:00+13в1141100 0.0 102010
13 мая, чт
чт1301:00+12ююв334497 0.0 101933
04:00+12ю364599 0.0 1018145
07:00+10зюз236298 0.0 101892
10:00+12ю236797 0.6 1018505
13:00+14юв2357100 0.7 10181272
16:00+12юв346575 0.0 1019548
19:00+15сз235471 0.0 10181002
22:00+11зсз3572100 0.0 101972